Liberty, SC

6:29 PM EST on February 27, 2017 (GMT -0500)
Pickens County

Weather History for KLQK - January, 2014

Change the Weather History Date:

Monday, January 27, 2014

  Actual Average Record
Temperature  
Mean Temperature 50 °F -  
Max Temperature 64 °F 53 °F 85 °F (2016)
Min Temperature 37 °F 29 °F 23 °F (2015)
Degree Days  
Heating Degree Days 14    
Moisture  
Dew Point 32 °F    
Average Humidity 54    
Maximum Humidity 81    
Minimum Humidity 33    
Precipitation  
Precipitation 0.00 in - - ()
Sea Level Pressure  
Sea Level Pressure 29.88 in    
Wind  
Wind Speed - (North)    
Max Wind Speed -    
Max Gust Speed -    
Visibility 10 miles    
Events      
Averages and records for this station are not official NWS values.
T = Trace of Precipitation, MM = Missing Value Source: NWS Daily Summary

Daily Weather History Graph

Daily Weather History Graph

Search for Another Location

Airport or City:

Trip Planner

Search our weather history database for the weather conditions in past years. The results will help you decide how hot, cold, wet, or windy it might be!

Date:

Astronomy

Jan. 27, 2014 Rise Set
Actual Time 7:32 AM EST 5:54 PM EST
Civil Twilight 7:05 AM EST 6:21 PM EST
Nautical Twilight 6:35 AM EST 6:52 PM EST
Astronomical Twilight 6:05 AM EST 7:22 PM EST
Moon 4:10 AM EST 2:41 PM EST
Length of Visible Light 11h 15m
Length of Day
10h 22m
Waning Crescent, 15% of the Moon is Illuminated
Jan 27
Waning Crescent
Jan 30
New
Feb 6
First Quarter
Feb 14
Full
Feb 22
Last Quarter

Hourly Weather History & Observations

Time (EST) Temp. Dew Point Humidity Pressure Visibility Wind Dir Wind Speed Gust Speed Precip Events Conditions
12:15 AM 41.7 °F 29.7 °F 62% 29.89 in 10.0 mi North - - N/A   Clear
12:35 AM 42.1 °F 29.8 °F 62% 29.89 in 10.0 mi North - - N/A   Scattered Clouds
12:55 AM 42.1 °F 29.7 °F 61% 29.88 in 10.0 mi North - - N/A   Mostly Cloudy
1:15 AM 42.6 °F 30.0 °F 61% 29.89 in 10.0 mi North - - N/A   Overcast
1:35 AM 42.1 °F 29.8 °F 62% 29.88 in 10.0 mi North - - N/A   Overcast
1:55 AM 42.8 °F 30.0 °F 61% 29.88 in 10.0 mi North - - N/A   Overcast
2:15 AM 43.0 °F 30.2 °F 61% 29.88 in 10.0 mi North - - N/A   Overcast
2:35 AM 43.0 °F 30.4 °F 61% 29.88 in 10.0 mi North - - N/A   Overcast
2:55 AM 43.0 °F 30.6 °F 62% 29.88 in 10.0 mi North - - N/A   Overcast
3:15 AM 43.7 °F 30.7 °F 60% 29.87 in 10.0 mi North - - N/A   Overcast
3:35 AM 43.7 °F 30.7 °F 60% 29.87 in 10.0 mi North - - N/A   Overcast
3:55 AM 43.2 °F 30.7 °F 62% 29.86 in 10.0 mi North - - N/A   Mostly Cloudy
4:15 AM 42.6 °F 30.7 °F 63% 29.86 in 10.0 mi North - - N/A   Mostly Cloudy
4:35 AM 42.3 °F 30.7 °F 64% 29.85 in 10.0 mi North - - N/A   Overcast
4:55 AM 41.4 °F 30.9 °F 66% 29.86 in 10.0 mi North - - N/A   Mostly Cloudy
5:15 AM 41.4 °F 31.1 °F 67% 29.85 in 10.0 mi North - - N/A   Mostly Cloudy
5:35 AM 41.9 °F 31.1 °F 66% 29.87 in 10.0 mi North - - N/A   Mostly Cloudy
5:55 AM 41.2 °F 31.3 °F 68% 29.88 in 10.0 mi North - - N/A   Overcast
6:15 AM 41.0 °F 31.3 °F 68% 29.88 in 10.0 mi North - - N/A   Overcast
6:35 AM 41.5 °F 31.8 °F 68% 29.86 in 10.0 mi North - - N/A   Overcast
6:55 AM 41.0 °F 32.0 °F 70% 29.87 in 10.0 mi North - - N/A   Light Drizzle
7:15 AM - - N/A% 29.87 in 10.0 mi North - - N/A   Unknown
7:35 AM 38.3 °F 32.0 °F 78% 29.85 in 10.0 mi North - - N/A   Scattered Clouds
7:55 AM 37.0 °F 31.8 °F 81% 29.87 in 10.0 mi North - - N/A   Scattered Clouds
8:15 AM 38.3 °F 31.8 °F 77% 29.88 in 10.0 mi North - - N/A   Clear
8:35 AM 38.8 °F 32.2 °F 77% 29.87 in 10.0 mi North - - N/A   Clear
8:55 AM 41.4 °F 32.4 °F 70% 29.88 in 10.0 mi North - - N/A   Clear
9:15 AM 45.1 °F 32.9 °F 62% 29.88 in 10.0 mi North - - N/A   Clear
9:35 AM 46.9 °F 33.1 °F 59% 29.87 in 10.0 mi North - - N/A   Clear
9:55 AM 47.7 °F 33.1 °F 57% 29.88 in 10.0 mi North - - N/A   Clear
10:15 AM 48.6 °F 33.1 °F 55% 29.87 in 10.0 mi North - - N/A   Clear
10:35 AM 51.1 °F 33.6 °F 51% 29.86 in 10.0 mi North - - N/A   Clear
10:55 AM 55.2 °F 34.0 °F 45% 29.86 in 10.0 mi North - - N/A   Mostly Cloudy
11:15 AM 55.9 °F 33.8 °F 43% 29.87 in 10.0 mi North - - N/A   Mostly Cloudy
11:35 AM 57.0 °F 34.2 °F 42% 29.87 in 10.0 mi North - - N/A   Mostly Cloudy
11:55 AM 58.1 °F 33.8 °F 40% 29.86 in 10.0 mi North - - N/A   Mostly Cloudy
12:15 PM 58.8 °F 34.2 °F 40% 29.86 in 10.0 mi North - - N/A   Mostly Cloudy
12:35 PM 59.7 °F 34.5 °F 39% 29.85 in 10.0 mi North - - N/A   Scattered Clouds
12:55 PM 61.3 °F 35.1 °F 37% 29.84 in 10.0 mi North - - N/A   Scattered Clouds
1:15 PM 62.2 °F 35.2 °F 37% 29.84 in 10.0 mi North - - N/A   Scattered Clouds
1:35 PM 63.1 °F 35.4 °F 36% 29.83 in 10.0 mi North - - N/A   Clear
1:55 PM 63.5 °F 35.2 °F 35% 29.83 in 10.0 mi North - - N/A   Clear
2:15 PM 64.2 °F 35.2 °F 34% 29.82 in 10.0 mi North - - N/A   Scattered Clouds
2:35 PM 63.5 °F 34.7 °F 34% 29.82 in 10.0 mi North - - N/A   Scattered Clouds
2:55 PM 64.0 °F 34.5 °F 33% 29.82 in 10.0 mi North - - N/A   Clear
3:15 PM 64.4 °F 34.7 °F 33% 29.83 in 10.0 mi North - - N/A   Scattered Clouds
3:35 PM 63.7 °F 34.7 °F 34% 29.83 in 10.0 mi North - - N/A   Scattered Clouds
3:55 PM 62.4 °F 33.6 °F 34% 29.83 in 10.0 mi North - - N/A   Clear
4:15 PM 61.9 °F 33.4 °F 34% 29.84 in 10.0 mi North - - N/A   Clear
4:35 PM 60.6 °F 33.1 °F 36% 29.86 in 10.0 mi North - - N/A   Clear
4:55 PM 59.4 °F 32.5 °F 36% 29.86 in 10.0 mi North - - N/A   Clear
5:15 PM 58.5 °F 31.6 °F 36% 29.87 in 10.0 mi North - - N/A   Clear
5:35 PM 57.2 °F 31.1 °F 37% 29.88 in 10.0 mi North - - N/A   Clear
5:55 PM 55.2 °F 30.7 °F 39% 29.88 in 10.0 mi North - - N/A   Clear
6:15 PM 53.4 °F 30.6 °F 42% 29.89 in 10.0 mi North - - N/A   Clear
6:35 PM 52.5 °F 30.6 °F 43% 29.90 in 10.0 mi North - - N/A   Clear
6:55 PM 48.9 °F 31.5 °F 51% 29.91 in 10.0 mi North - - N/A   Clear
7:15 PM 48.0 °F 31.3 °F 52% 29.92 in 10.0 mi North - - N/A   Clear
7:35 PM 49.6 °F 29.7 °F 46% 29.92 in 10.0 mi North - - N/A   Clear
7:55 PM 48.4 °F 29.1 °F 47% 29.93 in 10.0 mi North - - N/A   Clear
8:15 PM 47.1 °F 28.8 °F 49% 29.94 in 10.0 mi North - - N/A   Clear
8:35 PM 45.5 °F 28.8 °F 52% 29.94 in 10.0 mi North - - N/A   Clear
8:55 PM 44.1 °F 30.4 °F 59% 29.94 in 10.0 mi North - - N/A   Clear
9:15 PM 42.1 °F 30.0 °F 62% 29.95 in 10.0 mi North - - N/A   Clear
9:35 PM 38.7 °F 30.6 °F 73% 29.96 in 10.0 mi North - - N/A   Clear
9:55 PM 40.8 °F 30.7 °F 67% 29.97 in 10.0 mi North - - N/A   Clear
10:15 PM 41.5 °F 30.6 °F 65% 29.98 in 10.0 mi North - - N/A   Clear
10:35 PM 40.5 °F 30.2 °F 67% 29.98 in 10.0 mi North - - N/A   Clear
10:55 PM 39.7 °F 28.9 °F 65% 29.99 in 10.0 mi North - - N/A   Clear
11:15 PM 40.8 °F 27.3 °F 59% 29.99 in 10.0 mi North - - N/A   Clear
11:35 PM 39.2 °F 27.1 °F 62% 30.00 in 10.0 mi North - - N/A   Clear
11:55 PM 37.2 °F 25.9 °F 64% 30.00 in 10.0 mi North - - N/A   Clear